Location: *
(51.5000°N, 0.1100°W)
Time: 20:22:56
(UTC+00:00)

RESURS DK-1 - Pass Details

Date: 25 May 2024
Orbit: 541 x 547 km, 69.9° (Epoch: 23 June)

Event Time Altitude Azimuth Distance (km) Brightness Sun altitude
Rises 01:50:09 0° 328° (NNW) 2,722 6.3 -13.4°
Reaches altitude 10° 01:52:21 10° 330° (NNW) 1,826 5.4 -13.2°
Maximum altitude 01:56:26 79° 57° (ENE) 563 2.4 -12.9°
Drops below altitude 10° 02:00:30 10° 145° (SE) 1,817 4.7 -12.6°
Sets 02:02:41 0° 147° (SSE) 2,707 5.6 -12.5°
